User: anonymous   Login
Location: Aragoneses
(41.0275°N, 4.3847°W)
Time: 03:09:08
(UTC+00:00)
Language:

SKYMED 2 - Orbit

View from above orbital plane
View from above orbital plane
View from above satellite
View from above satellite

Ground track
Ground track

The orbit is defined by the following mean orbital elements,

1 32376U          26039.82351975 +.00000000 +00000-0 +89566-4 0 00002
2 32376  97.8843 225.2805 0001516  82.1796 277.9589 14.82157089    04
Epoch (UTC): 08 February 2026 19:45:52
Eccentricity: 0.0001516
inclination: 97.8843°
perigee height: 621 km
apogee height: 624 km
right ascension of ascending node: 225.2805°
argument of perigee: 82.1796°
revolutions per day: 14.82157089
mean anomaly at epoch: 277.9589°

The dashed part of the orbit path shows where the satellite is in the earth's shadow,  

DLR